Location: Malanoce
(44.2500°N, 7.4667°E)
Time: 19:37:54
(UTC+00:00)

BlueWalker 3 - Pass Details

Date: 28 January 2026
Orbit: 450 x 461 km, 53.2° (Epoch: 11 February)

Event Time Altitude Azimuth Distance (km) Brightness Sun altitude
Rises 18:03:27 0° 284° (WNW) 2,457 6.7 -16.1°
Reaches altitude 10° 18:05:59 10° 301° (WNW) 1,584 5.2 -16.5°
Maximum altitude 18:08:43 20° 351° (N) 1,091 3.6 -17.0°
Enters shadow 18:09:44 18° 15° (NNE) 1,173 3.6 -17.2°
